DW5914 Weather Reports


Display with metric or nautical units.
time (UTC)temp
F
wind
direction
speed
MPH
gust
MPH
rain 1hr
in
rain 24hr
in
rain mn
in
humidity
%
barometer
mb
20260901104524 56 135 0.0 0.0 0.00 0.00 0.00 89 1010.4
20260901103023 56 135 2.0 3.0 0.00 0.00 0.00 87 1010.5
20260901101521 57 134 0.0 0.0 0.00 0.00 0.00 85 1010.5
20260901100020 57 134 0.0 0.0 0.00 0.00 0.00 86 1010.5
20260901094525 57 134 0.0 0.0 0.00 0.00 0.00 85 1010.4
20260901093018 57 134 0.0 0.0 0.00 0.00 0.00 85 1010.4
20260901091519 57 134 0.0 0.0 0.00 0.00 0.00 85 1010.4
20260901090014 57 134 0.0 0.0 0.00 0.00 0.00 85 1010.4
20260901084513 58 134 0.0 0.0 0.00 0.00 0.00 85 1010.3
20260901083013 58 134 0.0 0.0 0.00 0.00 0.00 83 1010.4
20260901081511 58 134 0.0 3.0 0.00 0.00 0.00 83 1010.3
20260901080015 58 134 0.0 0.0 0.00 0.00 0.00 83 1010.3
20260901074508 59 135 0.0 0.0 0.00 0.00 0.00 82 1010.2
20260901073005 59 135 0.0 0.0 0.00 0.00 0.00 81 1010.1
20260901071505 59 135 0.0 0.0 0.00 0.00 0.00 81 1010.2
20260901070002 59 135 0.0 0.0 0.00 0.00 0.00 81 1010.3
20260901064506 59 135 0.0 2.0 0.00 0.00 0.00 81 1010.4
20260901063002 59 135 2.0 3.0 0.00 0.00 0.00 81 1010.5
20260901061502 60 135 0.0 0.0 0.00 0.00 0.00 81 1010.5
20260901060000 60 134 0.0 0.0 0.00 0.00 0.00 81 1010.4
20260901054601 60 135 0.0 3.0 0.00 0.00 0.00 81 1010.5
20260901053105 59 134 1.0 3.0 0.00 0.00 0.00 81 1010.5
20260901051601 60 134 0.0 3.0 0.00 0.00 0.00 80 1010.4
20260901050059 60 92 1.0 5.0 0.00 0.00 0.00 79 1010.4
20260901044604 61 80 0.0 2.0 0.00 0.00 0.00 77 1010.3
20260901043059 61 80 0.0 3.0 0.00 0.00 0.00 78 1010.2
20260901041604 61 69 1.0 3.0 0.00 0.00 0.00 79 1010.1
20260901040058 61 47 0.0 3.0 0.00 0.00 0.00 82 1010.1
20260901034557 61 54 2.0 7.0 0.00 0.00 0.00 83 1010.1
20260901033116 61 32 1.0 6.0 0.00 0.00 0.00 83 1010.0
20260901031557 61 51 4.0 7.0 0.00 0.00 0.00 82 1010.0
20260901024556 62 355 5.0 10.0 0.00 0.00 0.00 78 1009.9
20260901023055 63 11 4.0 10.0 0.00 0.00 0.00 76 1009.9
20260901021602 63 341 3.0 9.0 0.00 0.00 0.00 75 1009.9
20260901020052 63 5 3.0 9.0 0.00 0.00 0.00 76 1010.2
20260901014551 63 51 5.0 11.0 0.00 0.00 0.00 76 1010.3
20260901013104 63 51 4.0 14.0 0.00 0.00 0.00 75 1010.3
20260901011609 63 355 3.0 10.0 0.00 0.00 0.00 75 1010.4
20260901010056 63 9 3.0 13.0 0.00 0.00 0.00 76 1010.4
20260901004548 64 355 4.0 9.0 0.00 0.00 0.00 76 1010.4
20260901003049 64 5 4.0 9.0 0.00 0.00 0.00 77 1010.5
20260901001548 64 355 3.0 8.0 0.00 0.00 0.00 77 1010.6
20260901000045 64 355 3.0 8.0 0.00 0.00 0.00 78 1010.7
20260831234545 63 28 4.0 9.0 0.00 0.00 0.00 79 1010.9
20260831233041 64 342 5.0 10.0 0.00 0.00 0.00 77 1011.1
20260831231541 64 51 4.0 10.0 0.00 0.00 0.00 78 1011.2
20260831230038 64 9 5.0 11.0 0.00 0.00 0.00 79 1011.5
20260831224536 63 5 6.0 9.0 0.00 0.00 0.00 81 1011.7
20260831223040 63 350 4.0 9.0 0.00 0.00 0.00 80 1011.8
20260831221539 63 22 5.0 10.0 0.00 0.00 0.00 82 1012.0
20260831220031 62 55 2.0 12.0 0.00 0.00 0.00 82 1012.2
20260831214529 63 355 5.0 10.0 0.00 0.00 0.00 81 1012.4
20260831213027 63 5 5.0 10.0 0.00 0.00 0.00 79 1012.6
20260831211535 63 51 4.0 10.0 0.00 0.00 0.00 79 1012.7
20260831210023 64 22 5.0 10.0 0.00 0.00 0.00 76 1012.9
20260831204522 64 355 6.0 13.0 0.00 0.00 0.00 75 1013.0
20260831203027 64 13 6.0 11.0 0.00 0.00 0.00 75 1013.2
20260831201517 63 355 4.0 9.0 0.00 0.00 0.00 77 1013.4
20260831200016 64 22 4.0 9.0 0.00 0.00 0.00 77 1013.7
20260831194518 63 30 5.0 10.0 0.00 0.00 0.00 76 1013.9
20260831193009 63 360 5.0 12.0 0.00 0.00 0.00 77 1014.1
20260831191505 63 344 3.0 9.0 0.00 0.00 0.00 79 1014.4
20260831190004 62 317 4.0 9.0 0.00 0.00 0.00 80 1014.5
20260831184559 62 5 4.0 7.0 0.00 0.00 0.00 81 1014.7
20260831183100 61 13 4.0 8.0 0.00 0.00 0.00 81 1014.9
20260831181559 62 360 3.0 6.0 0.00 0.00 0.00 79 1015.2
20260831180058 61 333 2.0 5.0 0.00 0.00 0.00 79 1015.3
20260831174547 60 321 2.0 6.0 0.00 0.00 0.00 82 1015.6
20260831173048 59 350 2.0 5.0 0.00 0.00 0.00 84 1015.7
20260831171541 58 350 2.0 5.0 0.00 0.00 0.00 88 1015.8
20260831170037 56 69 2.0 5.0 0.00 0.00 0.00 90 1015.8
20260831164539 56 328 2.0 5.0 0.00 0.00 0.00 91 1015.9
20260831163036 56 39 2.0 5.0 0.00 0.00 0.00 91 1016.0
20260831161534 56 355 1.0 3.0 0.00 0.00 0.00 92 1016.1
20260831160033 55 24 1.0 3.0 0.00 0.00 0.00 91 1016.2
20260831154531 55 74 2.0 5.0 0.00 0.00 0.00 91 1016.3
20260831153031 55 30 2.0 5.0 0.00 0.00 0.00 92 1016.4
20260831151531 55 29 2.0 6.0 0.00 0.00 0.00 92 1016.4
20260831150030 54 53 0.0 4.0 0.00 0.00 0.00 92 1016.4
20260831144529 54 28 1.0 4.0 0.00 0.00 0.00 92 1016.3
20260831143029 54 41 2.0 4.0 0.00 0.00 0.00 92 1016.3
20260831141528 54 92 0.0 0.0 0.00 0.00 0.00 92 1016.3
20260831140033 54 92 0.0 0.0 0.00 0.00 0.00 92 1016.4
20260831134528 54 92 0.0 2.0 0.00 0.00 0.00 92 1016.2
20260831133033 53 92 0.0 2.0 0.00 0.00 0.00 92 1016.3
20260831131524 54 92 0.0 0.0 0.00 0.00 0.00 91 1016.5
20260831130023 54 92 0.0 2.0 0.00 0.00 0.00 92 1016.5
20260831124522 53 173 0.0 2.0 0.00 0.00 0.00 91 1016.6
20260831123020 54 173 2.0 3.0 0.00 0.00 0.00 91 1016.8
20260831121520 54 173 2.0 3.0 0.00 0.00 0.00 90 1016.9
20260831120029 55 173 0.0 0.0 0.00 0.00 0.00 91 1016.9
20260831114523 54 67 0.0 0.0 0.00 0.00 0.00 91 1016.9
20260831113016 54 67 0.0 0.0 0.00 0.00 0.00 91 1017.2
20260831111516 54 67 0.0 1.0 0.00 0.00 0.00 90 1017.2
20260831110016 54 67 1.0 2.0 0.00 0.00 0.00 90 1017.2